Marysville, OH

10:27 AM EDT on August 20, 2017 (GMT -0400)
Marysville

Weather History for KMRT - May, 2013

Change the Weather History Date:

Monday, May 20, 2013

  Actual Average (KDLZ) Record (KDLZ)
Temperature  
Mean Temperature 75 °F -  
Max Temperature 87 °F 74 °F 93 °F (1962)
Min Temperature 63 °F 50 °F 37 °F (1945)
Cooling Degree Days 10    
Growing Degree Days 25 (Base 50)    
Moisture  
Dew Point 63 °F    
Average Humidity 69    
Maximum Humidity 93    
Minimum Humidity 40    
Precipitation  
Precipitation 0.00 in - - ()
Sea Level Pressure  
Sea Level Pressure 29.96 in    
Wind  
Wind Speed 6 mph (SW)    
Max Wind Speed 18 mph    
Max Gust Speed 25 mph    
Visibility 8 miles    
Events      
Averages and records for this station are not official NWS values.
T = Trace of Precipitation, MM = Missing Value Source: NWS Daily Summary

Daily Weather History Graph

Daily Weather History Graph

Search for Another Location

Airport or City:

Trip Planner

Search our weather history database for the weather conditions in past years. The results will help you decide how hot, cold, wet, or windy it might be!

Date:

Astronomy

May. 20, 2013 Rise Set
Actual Time 6:13 AM EDT 8:47 PM EDT
Civil Twilight 5:41 AM EDT 9:18 PM EDT
Nautical Twilight 5:02 AM EDT 9:57 PM EDT
Astronomical Twilight 4:19 AM EDT 10:41 PM EDT
Moon 3:53 PM EDT 3:07 AM EDT
Length of Visible Light 15h 36m
Length of Day
14h 34m
Waxing Gibbous, 75% of the Moon is Illuminated
May 20
Waxing Gibbous
May 25
Full
May 31
Last Quarter
Jun 8
New
Jun 16
First Quarter

Hourly Weather History & Observations

Time (EDT) Temp. Heat Index Dew Point Humidity Pressure Visibility Wind Dir Wind Speed Gust Speed Precip Events Conditions
12:14 AM 66.6 °F - 61.0 °F 82% 29.97 in 10.0 mi Calm Calm - N/A   Clear
12:34 AM 67.3 °F - 61.5 °F 82% 29.97 in 10.0 mi South 3.5 mph - N/A   Clear
12:53 AM 66.2 °F - 61.2 °F 84% 29.97 in 10.0 mi Calm Calm - N/A   Clear
1:14 AM 65.1 °F - 61.0 °F 86% 29.97 in 10.0 mi Calm Calm - N/A   Clear
1:34 AM 66.0 °F - 62.4 °F 88% 29.97 in 10.0 mi South 3.5 mph - N/A   Clear
1:53 AM 66.7 °F - 62.2 °F 85% 29.97 in 10.0 mi Calm Calm - N/A   Clear
2:14 AM 65.8 °F - 62.2 °F 88% 29.96 in 10.0 mi SSW 5.8 mph - N/A   Clear
2:34 AM 66.4 °F - 62.8 °F 88% 29.96 in 10.0 mi SSW 4.6 mph - N/A   Clear
2:53 AM 66.2 °F - 62.6 °F 88% 29.96 in 10.0 mi South 6.9 mph - N/A   Clear
3:14 AM 65.5 °F - 62.2 °F 89% 29.96 in 10.0 mi SSW 5.8 mph - N/A   Clear
3:34 AM 65.5 °F - 62.4 °F 90% 29.97 in 10.0 mi SSW 6.9 mph - N/A   Clear
4:14 AM 65.1 °F - 62.4 °F 91% 29.97 in 7.0 mi South 4.6 mph - N/A   Clear
4:34 AM 64.4 °F - 61.9 °F 92% 29.97 in 7.0 mi SSW 5.8 mph - N/A   Clear
4:53 AM 64.8 °F - 62.2 °F 92% 29.96 in 7.0 mi South 4.6 mph - N/A   Clear
5:14 AM 64.8 °F - 62.2 °F 92% 29.96 in 7.0 mi Calm Calm - N/A   Clear
5:34 AM 64.2 °F - 61.9 °F 92% 29.97 in 5.0 mi SSW 4.6 mph - N/A   Clear
5:53 AM 64.0 °F - 61.9 °F 93% 29.97 in 4.0 mi SSW 4.6 mph - N/A   Scattered Clouds
6:14 AM 64.4 °F - 62.1 °F 92% 29.98 in 2.5 mi Calm Calm - N/A   Mostly Cloudy
6:34 AM 63.9 °F - 61.9 °F 93% 29.98 in 2.0 mi Calm Calm - N/A   Overcast
6:53 AM 65.3 °F - 63.1 °F 93% 29.98 in 3.0 mi South 6.9 mph - N/A   Overcast
7:14 AM 65.5 °F - 63.5 °F 93% 29.98 in 3.0 mi South 4.6 mph - N/A   Overcast
7:34 AM 66.2 °F - 64.0 °F 93% 29.98 in 2.5 mi SSW 5.8 mph - N/A   Overcast
8:14 AM 67.3 °F - 65.1 °F 93% 29.99 in 2.5 mi SSW 8.1 mph - N/A   Overcast
8:34 AM 68.0 °F - 65.5 °F 92% 29.99 in 2.5 mi SW 6.9 mph - N/A   Overcast
8:53 AM 68.9 °F - 65.8 °F 90% 30.01 in 2.5 mi SW 9.2 mph - N/A   Overcast
9:14 AM 69.1 °F - 66.0 °F 90% 30.01 in 2.5 mi SW 8.1 mph - N/A   Overcast
9:34 AM 70.9 °F - 66.4 °F 86% 30.02 in 4.0 mi SW 3.5 mph - N/A   Overcast
9:53 AM 72.3 °F - 67.3 °F 84% 30.02 in 4.0 mi West 4.6 mph - N/A   Overcast
10:14 AM 74.3 °F - 66.9 °F 78% 30.02 in 5.0 mi West 10.4 mph - N/A   Mostly Cloudy
10:34 AM 74.7 °F - 67.1 °F 77% 30.01 in 5.0 mi West 9.2 mph - N/A   Overcast
10:53 AM 75.9 °F - 66.2 °F 72% 30.02 in 7.0 mi West 10.4 mph - N/A   Overcast
11:34 AM 79.2 °F - 64.6 °F 61% 30.01 in 10.0 mi WSW 3.5 mph - N/A   Scattered Clouds
11:53 AM 79.9 °F - 65.5 °F 61% 30.00 in 7.0 mi SSW 4.6 mph - N/A   Mostly Cloudy
12:14 PM 80.4 °F 82.3 °F 65.5 °F 60% 29.99 in 10.0 mi South 5.8 mph - N/A   Mostly Cloudy
12:34 PM 81.9 °F 83.5 °F 64.6 °F 56% 29.98 in 10.0 mi South 8.1 mph - N/A   Mostly Cloudy
12:53 PM 82.8 °F 84.5 °F 64.9 °F 55% 29.98 in 10.0 mi WSW 8.1 mph - N/A   Scattered Clouds
1:14 PM 83.1 °F 84.2 °F 63.1 °F 51% 29.98 in 10.0 mi South 10.4 mph - N/A   Scattered Clouds
1:33 PM 84.7 °F 85.6 °F 63.3 °F 48% 29.96 in 10.0 mi SW 6.9 mph - N/A   Scattered Clouds
1:54 PM 85.5 °F 86.1 °F 62.8 °F 46% 29.95 in 10.0 mi SSW 11.5 mph 17.3 mph N/A   Clear
2:14 PM 86.4 °F 86.5 °F 61.2 °F 43% 29.96 in 10.0 mi SW 9.2 mph - N/A   Clear
2:54 PM 86.9 °F 87.0 °F 61.3 °F 42% 29.96 in 10.0 mi SW 10.4 mph 21.9 mph N/A   Scattered Clouds
3:14 PM 86.5 °F 87.3 °F 62.6 °F 45% 29.95 in 10.0 mi SW 12.7 mph - N/A   Scattered Clouds
3:33 PM 86.7 °F 86.8 °F 61.0 °F 42% 29.95 in 10.0 mi SW 16.1 mph - N/A   Mostly Cloudy
3:54 PM 87.8 °F 87.9 °F 61.5 °F 41% 29.93 in 10.0 mi SW 16.1 mph 20.7 mph N/A   Scattered Clouds
4:14 PM 86.5 °F 86.3 °F 60.4 °F 41% 29.93 in 10.0 mi SSW 16.1 mph 21.9 mph N/A   Scattered Clouds
4:33 PM 87.1 °F 86.7 °F 60.3 °F 40% 29.92 in 10.0 mi SW 16.1 mph 20.7 mph N/A   Clear
4:54 PM 87.1 °F 86.7 °F 60.3 °F 40% 29.92 in 10.0 mi SW 17.3 mph 23.0 mph N/A   Clear
5:14 PM 87.1 °F 86.7 °F 60.3 °F 40% 29.92 in 10.0 mi SW 16.1 mph 21.9 mph N/A   Clear
5:33 PM 86.9 °F 86.5 °F 59.7 °F 40% 29.91 in 10.0 mi SW 17.3 mph 23.0 mph N/A   Clear
5:54 PM 85.8 °F 85.4 °F 59.7 °F 41% 29.92 in 10.0 mi SW 18.4 mph 23.0 mph N/A   Clear
6:13 PM 85.6 °F 85.7 °F 60.8 °F 43% 29.91 in 10.0 mi SW 15.0 mph 23.0 mph N/A   Scattered Clouds
6:34 PM 84.4 °F 84.6 °F 60.8 °F 45% 29.92 in 10.0 mi SW 16.1 mph 25.3 mph N/A   Mostly Cloudy
6:53 PM 83.5 °F 83.7 °F 61.0 °F 46% 29.92 in 10.0 mi WSW 12.7 mph 18.4 mph N/A   Mostly Cloudy
7:13 PM 83.1 °F 83.5 °F 61.0 °F 47% 29.92 in 10.0 mi WSW 17.3 mph 21.9 mph N/A   Scattered Clouds
7:34 PM 81.9 °F 82.5 °F 61.0 °F 49% 29.92 in 10.0 mi WSW 12.7 mph 18.4 mph N/A   Clear
7:53 PM 81.3 °F 82.2 °F 61.7 °F 51% 29.92 in 10.0 mi WSW 12.7 mph - N/A   Clear
8:13 PM 79.9 °F - 61.9 °F 54% 29.92 in 10.0 mi SW 12.7 mph - N/A   Clear
8:34 PM 78.8 °F - 62.1 °F 56% 29.92 in 10.0 mi SW 10.4 mph - N/A   Clear
8:53 PM 77.9 °F - 62.6 °F 59% 29.92 in 10.0 mi SSW 10.4 mph - N/A   Clear
9:13 PM 77.4 °F - 62.6 °F 60% 29.92 in 10.0 mi SSW 11.5 mph - N/A   Clear
9:34 PM 76.6 °F - 62.8 °F 62% 29.92 in 10.0 mi SSW 9.2 mph - N/A   Clear
9:54 PM 75.6 °F - 63.0 °F 65% 29.92 in 10.0 mi SSW 8.1 mph - N/A   Clear
10:13 PM 74.5 °F - 63.0 °F 67% 29.92 in 10.0 mi South 6.9 mph - N/A   Clear
10:34 PM 73.6 °F - 63.1 °F 70% 29.92 in 10.0 mi South 4.6 mph - N/A   Clear
10:53 PM 72.1 °F - 63.1 °F 73% 29.92 in 10.0 mi South 5.8 mph - N/A   Clear
11:14 PM 71.2 °F - 63.5 °F 76% 29.92 in 10.0 mi SSW 5.8 mph - N/A   Clear
11:34 PM 71.1 °F - 63.5 °F 77% 29.92 in 10.0 mi SSW 6.9 mph - N/A   Clear
11:53 PM 71.6 °F - 63.9 °F 76% 29.92 in 10.0 mi SSW 5.8 mph - N/A   Clear